CW8756 Weather Reports


time (UTC)temp
C
wind
direction
speed
KPH
gust
KPH
rain 1hr
cm
rain 24hr
cm
rain mn
cm
humidity
%
barometer
mb
20260503071601 23 99 0.0 0.0 0.00 3.99 3.99 100 1014.1
20260503054550 24 91 0.0 0.0 0.00 3.99 3.99 100 1014.9
20260503053033 23 98 0.0 0.0 0.00 3.99 3.99 100 1015.1
20260503051543 21 94 0.0 0.0 0.00 3.99 3.99 100 1015.0
20260503050029 21 109 0.0 0.0 0.00 3.99 3.99 100 1015.0
20260503044528 22 109 0.0 0.0 0.00 3.99 3.99 100 1015.0
20260503043024 23 109 0.0 0.0 0.00 3.99 3.99 100 1015.2
20260503041530 23 109 0.0 0.0 0.00 3.99 3.99 100 1015.3
20260503040024 23 109 0.0 0.0 0.00 3.99 3.99 100 1015.4
20260503034524 23 109 0.0 0.0 0.00 3.99 3.99 100 1015.6
20260503033023 23 109 0.0 0.0 0.00 3.99 3.99 100 1015.7
20260503031527 23 87 0.0 0.0 0.00 3.99 3.99 100 1015.5
20260503030027 23 78 0.0 0.0 0.00 3.99 3.99 100 1015.3
20260503024520 23 121 0.0 0.0 0.00 3.99 3.99 100 1015.3
20260503023020 23 123 0.0 0.0 0.00 3.99 3.99 100 1015.3
20260503021520 23 134 0.0 0.0 0.00 3.99 3.99 100 1015.0
20260503020018 23 125 0.0 0.0 0.00 3.99 3.99 100 1014.8
20260503014518 23 193 0.0 0.0 0.00 3.99 3.99 100 1014.8
20260503013029 23 151 0.0 0.0 0.00 3.99 3.99 100 1014.6
20260503011517 23 220 0.0 0.0 0.00 3.99 3.99 100 1014.4
20260503010016 23 198 0.0 0.0 0.00 4.04 3.99 100 1014.3
20260503004517 23 122 0.0 0.0 0.00 4.04 3.99 100 1014.1
20260503003022 23 240 0.0 0.0 0.00 4.04 3.99 100 1013.8
20260503001516 23 240 0.0 0.0 0.00 4.04 3.99 100 1013.7
20260503000019 23 240 0.0 0.0 0.03 4.29 3.99 100 1013.6
20260502234519 23 128 0.0 0.0 0.30 4.29 3.99 100 1013.4
20260502233015 23 132 0.0 0.0 1.32 4.29 3.99 100 1013.2
20260502231516 23 281 0.0 0.0 2.77 4.29 3.99 100 1012.8
20260502230014 23 310 0.0 0.0 3.91 4.29 3.99 100 1012.6
20260502224512 23 326 0.0 0.0 3.71 4.04 3.73 100 1013.0
20260502223011 23 36 0.0 0.0 2.97 3.28 2.97 100 1013.1
20260502221506 24 55 0.0 0.0 1.50 1.80 1.50 100 1013.2
20260502220010 25 29 0.0 0.0 0.10 0.41 0.10 100 1012.7
20260502214502 25 65 0.0 0.0 0.03 0.33 0.03 100 1012.6
20260502213105 26 92 0.0 0.0 0.00 0.30 0.00 100 1012.5
20260502211557 26 58 0.0 0.0 0.00 0.30 0.00 100 1012.3
20260502210055 26 299 0.0 0.0 0.00 0.30 0.00 100 1012.4
20260502204558 27 24 0.0 0.0 0.00 0.30 0.00 100 1012.2
20260502203113 27 55 0.0 0.0 0.00 0.30 0.00 100 1012.2
20260502201554 27 325 0.0 0.0 0.00 0.30 0.00 100 1012.3
20260502200045 27 19 0.0 0.0 0.00 0.30 0.00 100 1012.5
20260502194545 28 331 0.0 0.0 0.00 0.30 0.00 100 1012.5
20260502193057 28 30 0.0 0.0 0.00 0.30 0.00 100 1012.7
20260502191543 28 20 0.0 0.0 0.00 0.30 0.00 99 1012.7
20260502190045 29 334 0.0 0.0 0.00 0.30 0.00 97 1012.8
20260502184548 30 353 0.0 0.0 0.00 0.30 0.00 96 1012.9
20260502183039 30 274 0.0 0.0 0.00 0.30 0.00 94 1012.9
20260502181537 30 45 0.0 0.0 0.00 0.30 0.00 94 1013.1
20260502123002 26 76 0.0 0.0 0.00 0.30 0.00 100 1014.2
20260502121600 26 51 0.0 0.0 0.00 0.30 0.00 100 1014.0
20260502114558 25 85 0.0 0.0 0.00 0.30 0.00 100 1013.9
20260502111555 25 70 0.0 0.0 0.00 0.30 0.00 100 1013.6
20260502110050 25 88 0.0 0.0 0.00 0.30 0.00 100 1013.3
20260502104552 25 95 0.0 0.0 0.00 0.30 0.00 100 1013.1
20260502101548 -17 0.0 0.0 0.00 0.30 0.00 1013.0
20260502091525 -17 0.0 0.0 0.00 0.30 0.00 1012.4